Total_Precipitation_Accumulation
0.73 0.44 0.51 0.48 0.42 0.43 0.42 0.46 0.51 0.52 0.49 0.47 0.45 0.41 0.39 0.42 0.47 0.54 0.59 0.65 0.82 0.99 1.07 1.14 1.23 1.24 1.28 1.32 1.40 1.51 1.46 1.47 1.67 1.84 1.84 1.75 1.84 1.96 1.90 1.69 1.60 1.33 1.34
0.55 0.42 0.51 0.46 0.43 0.44 0.45 0.48 0.50 0.55 0.53 0.54 0.51 0.46 0.45 0.47 0.50 0.61 0.67 0.73 0.91 1.02 1.04 1.15 1.26 1.26 1.19 1.19 1.29 1.41 1.36 1.42 1.73 2.02 2.09 1.87 1.99 2.19 2.16 1.90 1.94 1.75 1.36
0.41 0.41 0.49 0.46 0.43 0.48 0.48 0.52 0.54 0.58 0.58 0.57 0.57 0.54 0.53 0.58 0.62 0.65 0.78 0.90 1.04 1.15 1.13 1.20 1.32 1.32 1.21 1.13 1.26 1.38 1.37 1.43 1.92 2.31 2.59 2.36 2.24 2.42 2.29 2.05 1.89 1.71 1.36
0.50 0.60 0.56 0.45 0.43 0.48 0.50 0.56 0.57 0.61 0.66 0.68 0.71 0.66 0.62 0.66 0.72 0.73 0.85 0.98 1.12 1.31 1.28 1.21 1.29 1.36 1.19 1.14 1.30 1.35 1.35 1.53 2.14 2.61 2.87 2.64 2.63 2.89 2.55 2.20 1.97 1.76 1.57
0.58 0.69 0.63 0.50 0.48 0.49 0.56 0.55 0.60 0.66 0.73 0.79 0.84 0.90 0.85 0.72 0.73 0.77 0.88 1.02 1.14 1.32 1.54 1.43 1.37 1.46 1.26 1.19 1.30 1.33 1.39 1.72 2.29 2.51 2.76 3.02 3.35 3.41 2.68 2.29 2.14 1.98 1.78
0.59 0.63 0.61 0.58 0.57 0.56 0.59 0.62 0.70 0.79 0.83 0.84 0.91 0.98 1.06 0.91 0.86 0.88 1.03 1.13 1.22 1.33 1.52 1.75 1.65 1.72 1.60 1.33 1.32 1.34 1.55 1.96 2.12 2.17 2.89 3.29 3.31 3.23 2.68 2.35 2.24 2.29 2.12
0.64 0.66 0.76 0.80 0.84 0.84 0.80 0.79 0.85 0.90 0.95 0.98 0.96 1.00 1.13 1.07 1.02 1.08 1.20 1.28 1.38 1.44 1.54 1.65 1.63 1.79 1.68 1.45 1.38 1.41 1.67 1.94 1.89 2.16 2.81 3.28 3.16 3.03 2.85 2.64 2.48 2.47 2.30
0.80 0.87 0.99 1.13 1.21 1.12 1.05 1.00 1.01 0.99 0.98 1.02 1.12 1.09 1.14 1.21 1.21 1.17 1.25 1.38 1.57 1.66 1.67 1.70 1.69 1.71 1.71 1.63 1.52 1.50 1.64 1.70 1.64 2.01 2.56 2.88 2.84 2.74 2.88 2.73 2.61 2.54 2.40
1.21 1.28 1.25 1.18 1.16 1.17 1.15 1.11 1.18 1.15 1.11 1.12 1.22 1.28 1.21 1.24 1.30 1.35 1.46 1.53 1.58 1.60 1.61 1.72 1.94 1.83 1.69 1.68 1.66 1.66 1.77 1.82 1.80 2.03 2.38 2.79 2.76 2.91 3.08 2.83 2.53 2.54 2.58
2.06 2.30 1.79 1.41 1.25 1.12 1.13 1.23 1.32 1.46 1.41 1.30 1.32 1.42 1.44 1.45 1.49 1.56 1.60 1.63 1.61 1.65 1.65 1.82 2.05 2.07 1.94 1.81 1.73 1.77 1.87 1.79 1.55 1.91 2.48 2.64 2.79 3.16 3.43 3.19 2.85 2.70 2.65
2.77 2.99 2.25 1.77 1.54 1.42 1.40 1.43 1.52 1.69 1.79 1.63 1.52 1.55 1.69 1.83 2.06 2.07 1.86 1.89 1.80 1.87 1.90 2.00 2.16 2.18 2.23 2.21 2.10 2.03 1.92 1.65 1.83 2.08 2.30 2.58 2.98 3.47 3.64 3.45 3.10 2.89 2.80
2.82 2.64 2.39 2.19 1.89 1.72 1.67 1.89 1.97 1.89 1.94 1.80 1.94 1.86 2.02 2.53 2.70 2.38 2.33 2.26 2.13 2.20 2.34 2.41 2.42 2.40 2.26 2.26 2.46 2.45 2.00 1.90 2.06 2.22 2.34 2.54 2.91 3.47 3.71 3.52 3.26 3.15 3.10
3.31 2.82 2.56 2.34 2.25 2.11 2.20 2.42 2.51 2.57 2.59 2.38 2.49 2.46 2.54 2.71 2.67 2.67 2.66 2.56 2.56 2.56 2.80 2.94 2.74 2.49 2.34 2.36 2.43 2.44 2.31 2.27 2.22 2.28 2.42 2.70 2.98 3.47 3.80 3.65 3.36 3.30 3.34
3.50 3.38 2.85 2.71 2.78 2.98 3.01 2.93 2.87 2.86 2.95 2.87 2.88 2.71 2.82 2.94 2.96 2.87 2.89 2.81 2.87 2.80 3.03 3.10 3.06 2.94 2.76 2.58 2.48 2.59 2.68 2.69 2.50 2.53 2.81 2.97 2.96 3.31 3.80 3.83 3.64 3.52 3.58
3.56 3.46 3.16 3.34 3.42 3.50 3.53 3.49 3.23 3.13 3.36 3.38 3.33 3.21 3.22 3.13 3.01 3.02 2.97 2.97 2.88 3.01 3.15 3.23 3.11 3.02 2.94 2.77 2.56 2.55 2.73 2.80 2.88 2.90 3.00 3.10 2.88 3.06 3.59 4.00 4.08 4.10 4.05
3.53 3.76 3.71 3.79 3.68 3.61 3.69 3.85 3.89 3.56 3.68 3.91 3.99 3.83 3.63 3.47 3.38 3.39 3.45 3.40 3.15 3.19 3.34 3.47 3.36 3.26 3.02 2.88 2.70 2.68 2.74 2.67 2.77 2.95 3.04 3.12 3.00 2.95 3.38 3.94 4.34 4.53 4.50
3.74 3.82 3.85 3.74 3.93 4.04 4.05 4.03 4.09 3.98 3.92 4.08 4.28 4.29 3.94 3.64 3.74 3.78 3.91 3.89 3.57 3.54 3.66 3.76 3.74 3.63 3.24 2.95 2.89 2.95 2.94 2.93 2.78 2.78 3.02 3.12 3.01 3.05 3.30 3.51 3.85 4.15 4.35
3.75 4.09 4.03 3.63 4.05 4.28 4.23 4.18 3.96 4.02 4.27 4.47 4.50 4.62 4.29 3.91 3.81 4.00 3.91 3.74 3.71 3.84 4.09 4.27 4.16 4.09 3.86 3.63 3.46 3.18 2.96 2.91 2.81 2.92 2.92 2.97 3.27 3.18 3.21 3.11 3.30 3.65 3.96
3.92 4.42 4.25 3.99 4.16 4.29 4.35 4.41 4.15 4.21 4.54 4.70 4.83 4.84 4.38 3.96 3.91 4.18 4.21 4.17 4.08 4.14 4.27 4.10 4.24 4.17 4.31 4.13 3.67 3.39 3.12 2.96 2.90 2.90 2.94 2.91 3.04 3.20 3.19 3.01 3.09 3.36 3.63
4.24 4.97 4.59 4.20 4.17 4.47 4.48 4.33 4.29 4.41 4.71 5.03 5.10 4.91 4.59 4.42 4.26 4.46 4.40 4.44 4.48 4.58 4.49 4.44 4.49 4.29 4.19 4.14 3.75 3.52 3.27 2.97 2.93 2.84 2.71 2.77 2.85 2.74 2.83 2.87 2.98 2.92 3.21
4.16 4.66 4.66 4.46 4.53 4.62 4.63 4.40 4.53 4.71 5.02 5.31 5.27 5.17 5.05 4.92 4.85 4.94 4.95 4.91 4.74 4.66 4.56 4.48 4.49 4.41 4.11 3.97 4.01 3.64 3.13 2.70 2.48 2.39 2.41 2.51 2.52 2.46 2.56 2.80 2.99 2.92 2.83
3.88 4.14 4.45 4.60 4.64 4.43 4.79 5.07 5.34 5.67 5.73 6.01 6.26 6.29 6.08 5.78 5.59 5.44 5.42 5.08 4.76 4.64 4.52 4.41 4.35 4.22 3.87 3.75 3.83 3.85 3.32 2.84 2.28 1.99 2.07 2.10 2.19 2.34 2.40 2.34 2.54 2.65 2.57
3.68 4.03 4.37 4.72 4.85 4.78 5.26 5.78 6.23 6.61 6.54 6.59 6.55 6.51 6.43 6.00 5.67 5.46 5.21 5.01 4.80 4.62 4.45 4.44 4.35 4.23 3.93 3.73 3.71 3.96 3.72 3.18 2.57 2.21 1.98 2.02 2.14 2.26 2.23 2.18 2.20 2.26 2.31
3.41 3.82 4.15 4.58 5.00 5.31 5.71 6.19 6.72 7.06 7.27 7.11 6.78 6.48 6.10 5.61 5.27 4.91 4.73 4.77 4.64 4.43 4.23 3.94 3.82 3.83 3.80 3.63 3.56 3.44 3.34 3.18 2.95 2.62 2.29 2.24 2.29 2.27 2.19 2.16 2.21 2.31 2.36
3.18 3.54 3.99 4.33 4.75 5.40 6.15 6.71 7.23 7.57 7.58 7.04 6.44 5.87 5.40 4.98 4.62 4.38 4.31 4.41 4.31 4.06 3.87 3.62 3.43 3.27 3.28 3.36 3.39 3.30 3.14 2.99 2.75 2.60 2.43 2.31 2.28 2.20 2.13 2.10 2.16 2.26 2.34
2.95 3.21 3.72 4.28 4.64 5.20 5.97 6.58 6.92 7.10 7.03 6.59 5.93 5.38 4.91 4.45 4.07 3.77 3.57 3.48 3.39 3.23 3.12 3.10 3.06 3.02 3.01 3.08 3.11 3.07 2.96 2.86 2.76 2.72 2.55 2.32 2.27 2.29 2.19 2.06 1.96 1.98 2.04